User: anonymous   Login
Location: Kitchener
(43.4500°N, 80.5000°W)
Time: 16:49:21
(UTC-04:00)
Language:

ATLAS 5 CENTAUR R/B - Orbit

View from above orbital plane
View from above orbital plane
View from above satellite
View from above satellite

Ground track
Ground track

The orbit data is extracted from the following two-line orbital elements,

1 31702U 07027B   15086.88830058 0.00000700  00000-0  28886-3 0    04
2 31702  63.3760  68.0836 0179000 353.9119   6.0880 14.18320089    07
Epoch (UTC): 27 March 2015 21:19:09
Eccentricity: 0.0179000
inclination: 63.3760°
perigee height: 702 km
apogee height: 960 km
right ascension of ascending node: 68.0836°
argument of perigee: 353.9119°
revolutions per day: 14.18320089
mean anomaly at epoch: 6.0880°
orbit number at epoch: 0

The dashed part of the orbit path shows where the satellite is in the earth's shadow,  

DLR